sat.trackr.live / text

‹ back to catalog

JCSAT-3A

NORAD 29272 · 2006-033A

PAYLOAD ACTIVE UNKNOWN

§ Identity

Operator
Country
JPN
Launch date
2006-08-11
Launch site
FRGUI
Launch vehicle
Mass (kg)
RCS (m²)
31.62

Purposes: comms

External: N2YO · Heavens-Above · Gunter

§ Orbital elements

Epoch: 2026-05-25T04:20:58.775712Z

Period
1,436.08 min
Inclination
0.0213°
Eccentricity
0.0001970
Mean motion
1.00272766 rev/d
Perigee alt
35,778.0 km
Apogee alt
35,794.6 km
Semi-major
42,164.5 km
B*
0.0000e+0
RAAN
40.1998°
Arg perigee
358.9576°
Mean anomaly
36.8472°
Rev number
4,750

§ Raw data

JCSAT-3A1 29272U 06033A   26145.18123583 -.00000347  00000+0  00000+0 0  99962 29272   0.0213  40.1998 0001970 358.9576  36.8472  1.00272766 47508

JSON: /api/v1/satellites/29272 · /tle

For live sub-satellite position, see the globe view (requires WebGL).

§ Visibility from observer

Set your observer location to see the next 7 days of passes ≥ 10°. The values pass through the URL so the page stays shareable.

No JS? Fill the form by hand. The geolocation button needs JavaScript.